Location: Castiglione Fibocchi
(43.5333°N, 11.7667°E)
Time: 18:16:26
(UTC+00:00)

Cosmos 1340 Rocket - Pass Details

Date: 15 August 2020
Orbit: 529 x 558 km, 81.2° (Epoch: 18 September)

Event Time Altitude Azimuth Distance (km) Brightness Sun altitude
Exits shadow 01:07:47 40° 7° (N) 810 4.0 -27.2°
Drops below altitude 10° 01:10:22 10° 9° (N) 1,796 6.3 -27.0°
Sets 01:12:31 0° 10° (N) 2,688 7.4 -26.8°
